This demonstration page uses our WeatherBlox Daily Observations layout. Learn more.

Left ArrowRight Arrow

34.74481, -87.66753

Hourly Observations for December 30, 2017

Temp ( °F °C ) Dew Point ( °F °C ) Humidity (%) Winds ( mph kmh ) Pressure ( in mb ) Visibility ( mi km ) Precip ( " mm )
12:53 am 00:53 Cloudy 30 -1.1 24 -4.4 79 79 Calm 30.23 1024 10 16 0.00 0.00
1:53 am 01:53 Cloudy 32 0 26 -3.3 79 79 Calm 30.22 1023 10 16 0.00 0.00
2:53 am 02:53 Cloudy 33 0.6 26 -3.3 75 75 Calm 30.23 1024 10 16 0.00 0.00
3:53 am 03:53 Cloudy 33 0.6 26 -3.3 75 75 Calm 30.22 1023 10 16 0.00 0.00
4:53 am 04:53 Cloudy 33 0.6 27 -2.8 78 78 SE 3 6 30.21 1023 10 16 0.00 0.00
5:53 am 05:53 Cloudy 33 0.6 27 -2.8 78 78 Calm 30.22 1023 10 16 0.00 0.00
6:53 am 06:53 Cloudy 34 1.1 27 -2.8 76 76 Calm 30.23 1024 10 16 0.00 0.00
7:53 am 07:53 Cloudy 34 1.1 27 -2.8 76 76 Calm 30.23 1024 10 16 0.00 0.00
8:53 am 08:53 Cloudy 37 2.8 27 -2.8 67 67 Calm 30.23 1024 10 16 0.00 0.00
9:53 am 09:53 Cloudy 40 4.4 28 -2.2 63 63 WNW 8 13 30.25 1024 10 16 0.00 0.00
10:53 am 10:53 Cloudy 42 5.6 28 -2.2 58 58 NW 8 13 30.24 1024 10 16 0.00 0.00
11:53 am 11:53 Cloudy 44 6.7 28 -2.2 53 53 W 6 9 30.22 1023 10 16 0.00 0.00
12:53 pm 12:53 Cloudy 45 7.2 28 -2.2 52 52 VRB 3 6 30.20 1023 10 16 0.00 0.00
1:53 pm 13:53 Cloudy 44 6.7 28 -2.2 53 53 NNW 5 7 30.18 1022 10 16 0.00 0.00
2:53 pm 14:53 Cloudy 44 6.7 28 -2.2 53 53 NW 6 9 30.18 1022 10 16 0.00 0.00
3:53 pm 15:53 Cloudy 43 6.1 28 -2.2 56 56 NW 7 11 30.19 1022 10 16 0.00 0.00
4:53 pm 16:53 Mostly Cloudy 41 5 26 -3.3 55 55 N 6 9 30.19 1023 10 16 0.00 0.00
5:53 pm 17:53 Cloudy 41 5 26 -3.3 55 55 N 6 9 30.22 1023 10 16 0.00 0.00
6:53 pm 18:53 Cloudy 39 3.9 25 -3.9 57 57 N 8 13 30.22 1023 10 16 0.00 0.00
7:53 pm 19:53 Cloudy 36 2.2 24 -4.4 62 62 NNE 17 28 30.24 1024 10 16 0.00 0.00
8:53 pm 20:53 Cloudy 33 0.6 23 -5 66 66 N 7 11 30.26 1025 10 16 0.00 0.00
9:24 pm 21:24 Cloudy 32 0 22 -5.6 66 66 N 9 15 30.30 1026 10 16 0.00 0.00
9:53 pm 21:53 Cloudy 32 0 23 -5 69 69 N 8 13 30.27 1025 9 14 0.00 0.00
10:53 pm 22:53 Cloudy 31 -0.6 22 -5.6 69 69 NE 8 13 30.26 1025 8 13 0.00 0.00
11:53 pm 23:53 Cloudy 30 -1.1 21 -6.1 69 69 N 7 11 30.26 1025 9 14 0.00 0.00

Powered by AerisWeather